Zurück zum Katalog

COSMOS 2251 DEB

AktivLEO
NORAD 34615·DEBRIS·🇷🇺 Russia

Gestartet Jun 16, 1993 von Plesetsk Cosmodrome

Loading…

Nächste Überflüge (nächste 24 Stunden)

TLE

AktuellSource: Space-Track

Epoche: Sep 14, 2026, 20:23 UTC

1 34615U 93036WL  26257.84965108  .00000866  00000-0  81428-3 0  9999
2 34615  74.0055 211.2398 0396553  61.2691 329.4647 13.52509867865486

Verfolge COSMOS 2251 DEB in Echtzeit mit AllMySat

Download on the App Store